Preview of NWS' New Version of Forecast
This preview is not operational and should not be used for support decisions.

Regional Weather Roundup (RWR)

Issued by Philadelphia/Mt Holly (PHI)

                            
000
ASUS41 KPHI 182112
RWRPHI

REGIONAL WEATHER ROUNDUP
NATIONAL WEATHER SERVICE MOUNT HOLLY NJ
400 PM EST FRI JAN 18 2019

NOTE:  "FAIR" INDICATES FEW OR NO CLOUDS BELOW 12,000 FEET WITH NO
SIGNIFICANT WEATHER AND/OR OBSTRUCTIONS TO VISIBILITY.

 * = STATION DOES NOT REPORT PRECIPITATION (E.G. RAIN, SNOW, ETC.) 
        OR FOG.

NJZ015>026-182200-
SOUTHERN NEW JERSEY
  
CITY           SKY/WX    TMP DP  RH WIND       PRES   REMARKS
POMONA         CLOUDY    38  37  97 W9        30.09R WCI  31          
WILDWOOD*      CLOUDY    38  35  89 NW9       30.10R WCI  31          
MILLVILLE      CLOUDY    39  34  82 NW7       30.09R WCI  34          
WRIGHTSTOWN    CLOUDY    36  35  97 W8        30.06R WCI  29          
MOUNT HOLLY    CLOUDY    36  34  92 W3        30.09R FOG              
TRENTON        CLOUDY    35  32  88 W6        30.08R FOG     WCI  30  

$$
NJZ001>014-182200-
NORTHERN NEW JERSEY
  
CITY           SKY/WX    TMP DP  RH WIND       PRES   REMARKS
SUSSEX         CLOUDY    33  30  88 SW7       30.05R WCI  27          
ANDOVER*         N/A     32  29  88 SW5       30.06R WCI  27          
MORRISTOWN     CLOUDY    36  34  93 W8        30.08R FOG     WCI  29  
NEWARK         CLOUDY    38  32  79 W10       30.07R WCI  31          
TETERBORO      CLOUDY    41  33  73 SW8G17    30.06R                  
CALDWELL       CLOUDY    35  32  88 W3        30.08R                  
SOMERVILLE     CLOUDY    35  31  85 W5        30.07R WCI  31          
ALLAIRE*       CLOUDY    37  34  89 W7        30.08R WCI  32          
TOMS RIVER*    CLOUDY    38  36  92 W7        30.09R WCI  33          

$$
PAZ043-044-047-054-055-060>062-066>071-182200-
EASTERN PENNSYLVANIA
  
CITY           SKY/WX    TMP DP  RH WIND       PRES   REMARKS
PHILADELPHIA   CLOUDY    37  32  82 W7        30.11R WCI  32          
NORTH PHILA    CLOUDY    37  31  78 W13       30.10R HAZE    WCI  29  
BLUE BELL*     CLOUDY    32  32 100 CALM      30.10S                  
DOYLESTOWN     CLOUDY    34  30  85 W3        30.07R                  
QUAKERTOWN*    CLOUDY    34  30  86 VRB3      30.06F                  
PERKASIE*      CLOUDY    34  32  93 W3        30.07S                  
POTTSTOWN      CLOUDY    34  30  85 W5        30.09S FOG     WCI  30  
LANCASTER      PTSUNNY   36  31  82 W3        30.08R HAZE             
COATESVILLE    CLOUDY    34  32  93 W6        30.08R FOG     WCI  29  
READING        MOCLDY    35  31  85 W5        30.07S WCI  31          
ALLENTOWN      MOCLDY    36  29  75 W8        30.07F WCI  30          
MOUNT POCONO   MOCLDY    30  27  88 W10       29.97S WCI  21          
HAZLETON       CLOUDY   N/A N/A N/A W6        30.04R HAZE             
LEHIGHTON      CLOUDY    36  30  80 CALM      30.07S                  
WILKES BARRE   CLOUDY    32  28  85 SW8       30.03S WCI  25          

$$
DEZALL-MDZ008-012-015-019-020-182200-
DELAWARE AND EASTERN MARYLAND
  
CITY           SKY/WX    TMP DP  RH WIND       PRES   REMARKS
WILMINGTON     MOCLDY    39  32  76 W8        30.10R WCI  33          
DOVER          CLOUDY    40  34  79 NW8       30.10R WCI  34          
GEORGETOWN     FAIR      46  35  65 NW7       30.09R                  
EASTON         CLOUDY    39  36  87 W6        30.14R WCI  35          
ABERDEEN       MOSUNNY   39  34  81 SW5       30.10S                  
PATUXENT       FAIR      40  39  97 NE8       30.10  WCI  34          
OCEAN CITY     FAIR      49  36  61 N10       30.08R                  
WALLOPS ISLAND FAIR      50  36  58 W7        30.08R                  
CAMBRIDGE      CLOUDY    39  36  87 NW6       30.11R WCI  35          
SALISBURY      FAIR      46  38  73 N7        30.08R                  

$$
PAZ001-021-NYZ056-072-MDZ011-DCZ001-182200-
OTHER NEARBY LOCATIONS
  
CITY           SKY/WX    TMP DP  RH WIND       PRES   REMARKS
HARRISBURG     PTSUNNY   36  30  79 NW6       30.08S HAZE    WCI  31  
STATE COLLEGE  CLOUDY    32  32 100 SW5       30.06R FOG     WCI  27  
WILLIAMSPORT   CLOUDY    33  27  78 W3        30.08R                  
BINGHAMTON     CLOUDY    29  26  89 NW9       29.99R WCI  20          
NEW YORK CITY  CLOUDY    38  32  79 MISG      30.09                   
BALTIMORE      PTSUNNY   44  35  70 CALM      30.08R                  
WASHINGTON DC  FAIR      39  34  82 S7        30.12R WCI  34          

$$